#datetime,building,power
2023-11-27T00:00:00,axn,39.30
2023-11-27T00:01:00,axn,38.21
2023-11-27T00:02:00,axn,38.49
2023-11-27T00:03:00,axn,38.34
2023-11-27T00:04:00,axn,38.79
2023-11-27T00:05:00,axn,36.97
2023-11-27T00:06:00,axn,37.14
2023-11-27T00:07:00,axn,37.16
2023-11-27T00:08:00,axn,32.49
2023-11-27T00:09:00,axn,30.82
2023-11-27T00:10:00,axn,29.60
2023-11-27T00:11:00,axn,29.68
2023-11-27T00:12:00,axn,29.58
2023-11-27T00:13:00,axn,29.61
2023-11-27T00:14:00,axn,29.97
2023-11-27T00:15:00,axn,29.64
2023-11-27T00:16:00,axn,30.09
2023-11-27T00:17:00,axn,30.44
2023-11-27T00:18:00,axn,29.64
2023-11-27T00:19:00,axn,29.54
2023-11-27T00:20:00,axn,29.59
2023-11-27T00:21:00,axn,30.10
2023-11-27T00:22:00,axn,29.76
2023-11-27T00:23:00,axn,29.62
2023-11-27T00:24:00,axn,30.09
2023-11-27T00:25:00,axn,30.30
2023-11-27T00:26:00,axn,30.23
2023-11-27T00:27:00,axn,34.81
2023-11-27T00:28:00,axn,34.70
2023-11-27T00:29:00,axn,34.72
2023-11-27T00:30:00,axn,30.12
2023-11-27T00:31:00,axn,30.19
2023-11-27T00:32:00,axn,30.05
2023-11-27T00:33:00,axn,30.07
2023-11-27T00:34:00,axn,30.04
2023-11-27T00:35:00,axn,29.42
2023-11-27T00:36:00,axn,29.43
2023-11-27T00:37:00,axn,29.49
2023-11-27T00:38:00,axn,29.50
2023-11-27T00:39:00,axn,29.22
2023-11-27T00:40:00,axn,29.25
2023-11-27T00:41:00,axn,29.28
2023-11-27T00:42:00,axn,29.66
2023-11-27T00:43:00,axn,35.19
2023-11-27T00:44:00,axn,34.87
2023-11-27T00:45:00,axn,34.67
2023-11-27T00:46:00,axn,28.70
2023-11-27T00:47:00,axn,28.72
2023-11-27T00:48:00,axn,28.42
2023-11-27T00:49:00,axn,28.34
2023-11-27T00:50:00,axn,27.89
2023-11-27T00:51:00,axn,27.91
2023-11-27T00:52:00,axn,27.94
2023-11-27T00:53:00,axn,28.13
2023-11-27T00:54:00,axn,27.80
2023-11-27T00:55:00,axn,27.97
2023-11-27T00:56:00,axn,27.73
2023-11-27T00:57:00,axn,27.68
2023-11-27T00:58:00,axn,27.69
2023-11-27T00:59:00,axn,27.82
2023-11-27T01:00:00,axn,27.83
2023-11-27T01:01:00,axn,27.79
2023-11-27T01:02:00,axn,27.81
2023-11-27T01:03:00,axn,27.63
2023-11-27T01:04:00,axn,27.64
2023-11-27T01:05:00,axn,27.60
2023-11-27T01:06:00,axn,28.11
2023-11-27T01:07:00,axn,32.73
2023-11-27T01:08:00,axn,27.76
2023-11-27T01:09:00,axn,27.69
2023-11-27T01:10:00,axn,28.06
2023-11-27T01:11:00,axn,30.58
2023-11-27T01:12:00,axn,28.15
2023-11-27T01:13:00,axn,27.80
2023-11-27T01:14:00,axn,27.93
2023-11-27T01:15:00,axn,27.78
2023-11-27T01:16:00,axn,27.98
2023-11-27T01:17:00,axn,27.59
2023-11-27T01:18:00,axn,27.63
2023-11-27T01:19:00,axn,27.76
2023-11-27T01:20:00,axn,27.87
2023-11-27T01:21:00,axn,27.70
2023-11-27T01:22:00,axn,27.52
2023-11-27T01:23:00,axn,27.58
2023-11-27T01:24:00,axn,27.42
2023-11-27T01:25:00,axn,27.63
2023-11-27T01:26:00,axn,27.54
2023-11-27T01:27:00,axn,27.57
2023-11-27T01:28:00,axn,27.44
2023-11-27T01:29:00,axn,27.71
2023-11-27T01:30:00,axn,27.64
2023-11-27T01:31:00,axn,27.63
2023-11-27T01:32:00,axn,27.48
2023-11-27T01:33:00,axn,27.64
2023-11-27T01:34:00,axn,27.75
2023-11-27T01:35:00,axn,27.60
2023-11-27T01:36:00,axn,28.01
2023-11-27T01:37:00,axn,27.64
2023-11-27T01:38:00,axn,27.76
2023-11-27T01:39:00,axn,27.60
2023-11-27T01:40:00,axn,27.76
2023-11-27T01:41:00,axn,28.06
2023-11-27T01:42:00,axn,27.64
2023-11-27T01:43:00,axn,27.54
2023-11-27T01:44:00,axn,27.60
2023-11-27T01:45:00,axn,27.55
2023-11-27T01:46:00,axn,27.59
2023-11-27T01:47:00,axn,27.70
2023-11-27T01:48:00,axn,27.59
2023-11-27T01:49:00,axn,27.80
2023-11-27T01:50:00,axn,27.58
2023-11-27T01:51:00,axn,28.37
2023-11-27T01:52:00,axn,27.78
2023-11-27T01:53:00,axn,27.69
2023-11-27T01:54:00,axn,27.43
2023-11-27T01:55:00,axn,27.46
2023-11-27T01:56:00,axn,27.18
2023-11-27T01:57:00,axn,27.66
2023-11-27T01:58:00,axn,27.51
2023-11-27T01:59:00,axn,27.70
2023-11-27T02:00:00,axn,27.43
2023-11-27T02:01:00,axn,27.42
2023-11-27T02:02:00,axn,26.86
2023-11-27T02:03:00,axn,27.17
2023-11-27T02:04:00,axn,26.98
2023-11-27T02:05:00,axn,27.47
2023-11-27T02:06:00,axn,27.32
2023-11-27T02:07:00,axn,27.29
2023-11-27T02:08:00,axn,27.18
2023-11-27T02:09:00,axn,27.53
2023-11-27T02:10:00,axn,29.16
2023-11-27T02:11:00,axn,27.46
2023-11-27T02:12:00,axn,27.42
2023-11-27T02:13:00,axn,27.41
2023-11-27T02:14:00,axn,27.39
2023-11-27T02:15:00,axn,27.38
2023-11-27T02:16:00,axn,27.62
2023-11-27T02:17:00,axn,27.76
2023-11-27T02:18:00,axn,27.75
2023-11-27T02:19:00,axn,27.74
2023-11-27T02:20:00,axn,27.60
2023-11-27T02:21:00,axn,27.72
2023-11-27T02:22:00,axn,27.68
2023-11-27T02:23:00,axn,27.70
2023-11-27T02:24:00,axn,27.76
2023-11-27T02:25:00,axn,27.72
2023-11-27T02:26:00,axn,28.05
2023-11-27T02:27:00,axn,28.16
2023-11-27T02:28:00,axn,28.27
2023-11-27T02:29:00,axn,28.62
2023-11-27T02:30:00,axn,28.50
2023-11-27T02:31:00,axn,27.98
2023-11-27T02:32:00,axn,27.73
2023-11-27T02:33:00,axn,27.79
2023-11-27T02:34:00,axn,27.90
2023-11-27T02:35:00,axn,27.70
2023-11-27T02:36:00,axn,27.77
2023-11-27T02:37:00,axn,27.75
2023-11-27T02:38:00,axn,27.59
2023-11-27T02:39:00,axn,27.53
2023-11-27T02:40:00,axn,27.47
2023-11-27T02:41:00,axn,27.26
2023-11-27T02:42:00,axn,27.34
2023-11-27T02:43:00,axn,27.27
2023-11-27T02:44:00,axn,27.13
2023-11-27T02:45:00,axn,27.20
2023-11-27T02:46:00,axn,37.85
2023-11-27T02:47:00,axn,37.63
2023-11-27T02:48:00,axn,37.54
2023-11-27T02:49:00,axn,37.57
2023-11-27T02:50:00,axn,37.31
2023-11-27T02:51:00,axn,37.39
2023-11-27T02:52:00,axn,27.22
2023-11-27T02:53:00,axn,27.62
2023-11-27T02:54:00,axn,27.24
2023-11-27T02:55:00,axn,27.37
2023-11-27T02:56:00,axn,27.18
2023-11-27T02:57:00,axn,27.27
2023-11-27T02:58:00,axn,27.43
2023-11-27T02:59:00,axn,27.32
2023-11-27T03:00:00,axn,27.05
2023-11-27T03:01:00,axn,27.20
2023-11-27T03:02:00,axn,26.83
2023-11-27T03:03:00,axn,26.83
2023-11-27T03:04:00,axn,26.87
2023-11-27T03:05:00,axn,26.98
2023-11-27T03:06:00,axn,26.96
2023-11-27T03:07:00,axn,26.97
2023-11-27T03:08:00,axn,27.06
2023-11-27T03:09:00,axn,26.92
2023-11-27T03:10:00,axn,26.98
2023-11-27T03:11:00,axn,26.72
2023-11-27T03:12:00,axn,26.91
2023-11-27T03:13:00,axn,26.73
2023-11-27T03:14:00,axn,26.83
2023-11-27T03:15:00,axn,26.82
2023-11-27T03:16:00,axn,26.96
2023-11-27T03:17:00,axn,26.92
2023-11-27T03:18:00,axn,26.83
2023-11-27T03:19:00,axn,27.01
2023-11-27T03:20:00,axn,27.12
2023-11-27T03:21:00,axn,26.84
2023-11-27T03:22:00,axn,27.39
2023-11-27T03:23:00,axn,26.79
2023-11-27T03:24:00,axn,26.67
2023-11-27T03:25:00,axn,27.38
2023-11-27T03:26:00,axn,26.59
2023-11-27T03:27:00,axn,26.78
2023-11-27T03:28:00,axn,26.72
2023-11-27T03:29:00,axn,26.73
2023-11-27T03:30:00,axn,26.49
2023-11-27T03:31:00,axn,26.46
2023-11-27T03:32:00,axn,26.37
2023-11-27T03:33:00,axn,26.46
2023-11-27T03:34:00,axn,26.91
2023-11-27T03:35:00,axn,26.64
2023-11-27T03:36:00,axn,26.71
2023-11-27T03:37:00,axn,26.89
2023-11-27T03:38:00,axn,27.05
2023-11-27T03:39:00,axn,27.20
2023-11-27T03:40:00,axn,26.87
2023-11-27T03:41:00,axn,26.88
2023-11-27T03:42:00,axn,26.82
2023-11-27T03:43:00,axn,29.70
2023-11-27T03:44:00,axn,29.47
2023-11-27T03:45:00,axn,26.70
2023-11-27T03:46:00,axn,27.21
2023-11-27T03:47:00,axn,26.79
2023-11-27T03:48:00,axn,26.90
2023-11-27T03:49:00,axn,32.09
2023-11-27T03:50:00,axn,26.88
2023-11-27T03:51:00,axn,26.72
2023-11-27T03:52:00,axn,27.39
2023-11-27T03:53:00,axn,26.85
2023-11-27T03:54:00,axn,27.16
2023-11-27T03:55:00,axn,27.21
2023-11-27T03:56:00,axn,27.15
2023-11-27T03:57:00,axn,26.93
2023-11-27T03:58:00,axn,26.66
2023-11-27T03:59:00,axn,27.25
2023-11-27T04:00:00,axn,27.19
2023-11-27T04:01:00,axn,27.06
2023-11-27T04:02:00,axn,27.11
2023-11-27T04:03:00,axn,26.90
2023-11-27T04:04:00,axn,27.29
2023-11-27T04:05:00,axn,27.31
2023-11-27T04:06:00,axn,27.06
2023-11-27T04:07:00,axn,26.77
2023-11-27T04:08:00,axn,26.85
2023-11-27T04:09:00,axn,41.16
2023-11-27T04:10:00,axn,26.80
2023-11-27T04:11:00,axn,26.92
2023-11-27T04:12:00,axn,26.90
2023-11-27T04:13:00,axn,26.76
2023-11-27T04:14:00,axn,26.49
2023-11-27T04:15:00,axn,26.58
2023-11-27T04:16:00,axn,26.58
2023-11-27T04:17:00,axn,26.67
2023-11-27T04:18:00,axn,26.98
2023-11-27T04:19:00,axn,26.76
2023-11-27T04:20:00,axn,26.70
2023-11-27T04:21:00,axn,26.99
2023-11-27T04:22:00,axn,26.71
2023-11-27T04:23:00,axn,26.85
2023-11-27T04:24:00,axn,27.20
2023-11-27T04:25:00,axn,27.28
2023-11-27T04:26:00,axn,27.16
2023-11-27T04:27:00,axn,27.33
2023-11-27T04:28:00,axn,27.60
2023-11-27T04:29:00,axn,27.13
2023-11-27T04:30:00,axn,27.09
2023-11-27T04:31:00,axn,26.92
2023-11-27T04:32:00,axn,27.04
2023-11-27T04:33:00,axn,26.88
2023-11-27T04:34:00,axn,26.89
2023-11-27T04:35:00,axn,26.78
2023-11-27T04:36:00,axn,26.99
2023-11-27T04:37:00,axn,26.87
2023-11-27T04:38:00,axn,26.92
2023-11-27T04:39:00,axn,26.99
2023-11-27T04:40:00,axn,27.05
2023-11-27T04:41:00,axn,27.05
2023-11-27T04:42:00,axn,27.11
2023-11-27T04:43:00,axn,26.82
2023-11-27T04:44:00,axn,27.01
2023-11-27T04:45:00,axn,26.82
2023-11-27T04:46:00,axn,27.36
2023-11-27T04:47:00,axn,27.46
2023-11-27T04:48:00,axn,27.50
2023-11-27T04:49:00,axn,27.54
2023-11-27T04:50:00,axn,27.28
2023-11-27T04:51:00,axn,27.29
2023-11-27T04:52:00,axn,27.12
2023-11-27T04:53:00,axn,27.53
2023-11-27T04:54:00,axn,27.50
2023-11-27T04:55:00,axn,27.78
2023-11-27T04:56:00,axn,27.73
2023-11-27T04:57:00,axn,41.84
2023-11-27T04:58:00,axn,41.55
2023-11-27T04:59:00,axn,41.40
2023-11-27T05:00:00,axn,43.70
2023-11-27T05:01:00,axn,25.24
2023-11-27T05:02:00,axn,41.69
2023-11-27T05:03:00,axn,44.12
2023-11-27T05:04:00,axn,31.26
2023-11-27T05:05:00,axn,30.91
2023-11-27T05:06:00,axn,31.18
2023-11-27T05:07:00,axn,31.10
2023-11-27T05:08:00,axn,31.20
2023-11-27T05:09:00,axn,31.27
2023-11-27T05:10:00,axn,31.18
2023-11-27T05:11:00,axn,31.76
2023-11-27T05:12:00,axn,31.51
2023-11-27T05:13:00,axn,31.67
2023-11-27T05:14:00,axn,31.16
2023-11-27T05:15:00,axn,30.96
2023-11-27T05:16:00,axn,31.09
2023-11-27T05:17:00,axn,31.62
2023-11-27T05:18:00,axn,33.44
2023-11-27T05:19:00,axn,33.33
2023-11-27T05:20:00,axn,31.93
2023-11-27T05:21:00,axn,31.55
2023-11-27T05:22:00,axn,37.30
2023-11-27T05:23:00,axn,37.23
2023-11-27T05:24:00,axn,36.61
2023-11-27T05:25:00,axn,36.46
2023-11-27T05:26:00,axn,30.15
2023-11-27T05:27:00,axn,30.26
2023-11-27T05:28:00,axn,30.23
2023-11-27T05:29:00,axn,30.82
2023-11-27T05:30:00,axn,30.68
2023-11-27T05:31:00,axn,32.22
2023-11-27T05:32:00,axn,31.31
2023-11-27T05:33:00,axn,31.44
2023-11-27T05:34:00,axn,31.53
2023-11-27T05:35:00,axn,31.60
2023-11-27T05:36:00,axn,31.57
2023-11-27T05:37:00,axn,32.05
2023-11-27T05:38:00,axn,31.24
2023-11-27T05:39:00,axn,31.25
2023-11-27T05:40:00,axn,31.39
2023-11-27T05:41:00,axn,31.29
2023-11-27T05:42:00,axn,31.98
2023-11-27T05:43:00,axn,32.37
2023-11-27T05:44:00,axn,32.02
2023-11-27T05:45:00,axn,32.00
2023-11-27T05:46:00,axn,32.07
2023-11-27T05:47:00,axn,31.98
2023-11-27T05:48:00,axn,31.71
2023-11-27T05:49:00,axn,31.71
2023-11-27T05:50:00,axn,31.52
2023-11-27T05:51:00,axn,31.29
2023-11-27T05:52:00,axn,30.81
2023-11-27T05:53:00,axn,30.52
2023-11-27T05:54:00,axn,31.05
2023-11-27T05:55:00,axn,31.10
2023-11-27T05:56:00,axn,30.73
2023-11-27T05:57:00,axn,31.09
2023-11-27T05:58:00,axn,31.15
2023-11-27T05:59:00,axn,31.06
2023-11-27T06:00:00,axn,31.62
2023-11-27T06:01:00,axn,31.65
2023-11-27T06:02:00,axn,31.17
2023-11-27T06:03:00,axn,31.31
2023-11-27T06:04:00,axn,32.14
2023-11-27T06:05:00,axn,32.46
2023-11-27T06:06:00,axn,32.75
2023-11-27T06:07:00,axn,33.36
2023-11-27T06:08:00,axn,33.22
2023-11-27T06:09:00,axn,32.91
2023-11-27T06:10:00,axn,33.03
2023-11-27T06:11:00,axn,33.19
2023-11-27T06:12:00,axn,33.05
2023-11-27T06:13:00,axn,33.35
2023-11-27T06:14:00,axn,31.88
2023-11-27T06:15:00,axn,31.86
2023-11-27T06:16:00,axn,43.94
2023-11-27T06:17:00,axn,31.53
2023-11-27T06:18:00,axn,31.97
2023-11-27T06:19:00,axn,32.27
2023-11-27T06:20:00,axn,31.61
2023-11-27T06:21:00,axn,31.13
2023-11-27T06:22:00,axn,31.50
2023-11-27T06:23:00,axn,31.39
2023-11-27T06:24:00,axn,31.25
2023-11-27T06:25:00,axn,31.70
2023-11-27T06:26:00,axn,30.68
2023-11-27T06:27:00,axn,30.09
2023-11-27T06:28:00,axn,29.90
2023-11-27T06:29:00,axn,29.91
2023-11-27T06:30:00,axn,30.90
2023-11-27T06:31:00,axn,30.96
2023-11-27T06:32:00,axn,30.72
2023-11-27T06:33:00,axn,30.67
2023-11-27T06:34:00,axn,30.81
2023-11-27T06:35:00,axn,30.74
2023-11-27T06:36:00,axn,30.63
2023-11-27T06:37:00,axn,29.99
2023-11-27T06:38:00,axn,30.04
2023-11-27T06:39:00,axn,30.19
2023-11-27T06:40:00,axn,29.92
2023-11-27T06:41:00,axn,29.88
2023-11-27T06:42:00,axn,30.19
2023-11-27T06:43:00,axn,32.99
2023-11-27T06:44:00,axn,30.60
2023-11-27T06:45:00,axn,30.35
2023-11-27T06:46:00,axn,30.41
2023-11-27T06:47:00,axn,30.28
2023-11-27T06:48:00,axn,30.49
2023-11-27T06:49:00,axn,30.40
2023-11-27T06:50:00,axn,30.10
2023-11-27T06:51:00,axn,29.99
2023-11-27T06:52:00,axn,30.08
2023-11-27T06:53:00,axn,28.58
2023-11-27T06:54:00,axn,30.91
2023-11-27T06:55:00,axn,31.02
2023-11-27T06:56:00,axn,30.72
2023-11-27T06:57:00,axn,30.88
2023-11-27T06:58:00,axn,30.89
2023-11-27T06:59:00,axn,30.99
2023-11-27T07:00:00,axn,31.10
2023-11-27T07:01:00,axn,30.99
2023-11-27T07:02:00,axn,31.82
2023-11-27T07:03:00,axn,33.69
2023-11-27T07:04:00,axn,42.68
2023-11-27T07:05:00,axn,42.66
2023-11-27T07:06:00,axn,42.44
2023-11-27T07:07:00,axn,41.80
2023-11-27T07:08:00,axn,32.25
2023-11-27T07:09:00,axn,31.96
2023-11-27T07:10:00,axn,31.61
2023-11-27T07:11:00,axn,31.52
2023-11-27T07:12:00,axn,31.80
2023-11-27T07:13:00,axn,32.44
2023-11-27T07:14:00,axn,32.78
2023-11-27T07:15:00,axn,31.24
2023-11-27T07:16:00,axn,32.63
2023-11-27T07:17:00,axn,31.36
2023-11-27T07:18:00,axn,32.04
2023-11-27T07:19:00,axn,48.62
2023-11-27T07:20:00,axn,31.76
2023-11-27T07:21:00,axn,33.02
2023-11-27T07:22:00,axn,32.35
2023-11-27T07:23:00,axn,33.19
2023-11-27T07:24:00,axn,33.53
2023-11-27T07:25:00,axn,31.75
2023-11-27T07:26:00,axn,31.69
2023-11-27T07:27:00,axn,31.68
2023-11-27T07:28:00,axn,32.01
2023-11-27T07:29:00,axn,31.86
2023-11-27T07:30:00,axn,32.02
2023-11-27T07:31:00,axn,32.68
2023-11-27T07:32:00,axn,32.78
2023-11-27T07:33:00,axn,33.59
2023-11-27T07:34:00,axn,32.94
2023-11-27T07:35:00,axn,33.48
2023-11-27T07:36:00,axn,33.59
2023-11-27T07:37:00,axn,34.24
2023-11-27T07:38:00,axn,36.01
2023-11-27T07:39:00,axn,37.47
2023-11-27T07:40:00,axn,37.44
2023-11-27T07:41:00,axn,37.58
2023-11-27T07:42:00,axn,54.24
2023-11-27T07:43:00,axn,39.99
2023-11-27T07:44:00,axn,40.59
2023-11-27T07:45:00,axn,39.54
2023-11-27T07:46:00,axn,41.22
2023-11-27T07:47:00,axn,39.73
2023-11-27T07:48:00,axn,39.34
2023-11-27T07:49:00,axn,39.97
2023-11-27T07:50:00,axn,41.64
2023-11-27T07:51:00,axn,40.07
2023-11-27T07:52:00,axn,43.01
2023-11-27T07:53:00,axn,43.29
2023-11-27T07:54:00,axn,40.24
2023-11-27T07:55:00,axn,40.35
2023-11-27T07:56:00,axn,41.22
2023-11-27T07:57:00,axn,50.63
2023-11-27T07:58:00,axn,41.22
2023-11-27T07:59:00,axn,43.57
2023-11-27T08:00:00,axn,40.89
2023-11-27T08:01:00,axn,43.14
2023-11-27T08:02:00,axn,43.54
2023-11-27T08:03:00,axn,45.30
2023-11-27T08:04:00,axn,44.85
2023-11-27T08:05:00,axn,45.36
2023-11-27T08:06:00,axn,43.02
2023-11-27T08:07:00,axn,43.68
2023-11-27T08:08:00,axn,42.98
2023-11-27T08:09:00,axn,44.66
2023-11-27T08:10:00,axn,43.45
2023-11-27T08:11:00,axn,44.06
2023-11-27T08:12:00,axn,44.11
2023-11-27T08:13:00,axn,46.18
2023-11-27T08:14:00,axn,44.54
2023-11-27T08:15:00,axn,43.30
2023-11-27T08:16:00,axn,44.72
2023-11-27T08:17:00,axn,43.20
2023-11-27T08:18:00,axn,45.09
2023-11-27T08:19:00,axn,44.96
2023-11-27T08:20:00,axn,46.71
2023-11-27T08:21:00,axn,45.49
2023-11-27T08:22:00,axn,44.87
2023-11-27T08:23:00,axn,44.21
2023-11-27T08:24:00,axn,45.85
2023-11-27T08:25:00,axn,43.26
2023-11-27T08:26:00,axn,43.96
2023-11-27T08:27:00,axn,44.27
2023-11-27T08:28:00,axn,44.07
2023-11-27T08:29:00,axn,42.96
2023-11-27T08:30:00,axn,44.00
2023-11-27T08:31:00,axn,44.31
2023-11-27T08:32:00,axn,44.96
2023-11-27T08:33:00,axn,46.52
2023-11-27T08:34:00,axn,45.44
2023-11-27T08:35:00,axn,47.62
2023-11-27T08:36:00,axn,47.75
2023-11-27T08:37:00,axn,50.34
2023-11-27T08:38:00,axn,49.26
2023-11-27T08:39:00,axn,44.93
2023-11-27T08:40:00,axn,44.20
2023-11-27T08:41:00,axn,46.80
2023-11-27T08:42:00,axn,48.25
2023-11-27T08:43:00,axn,44.62
2023-11-27T08:44:00,axn,44.70
2023-11-27T08:45:00,axn,44.71
2023-11-27T08:46:00,axn,44.80
2023-11-27T08:47:00,axn,45.33
2023-11-27T08:48:00,axn,45.81
2023-11-27T08:49:00,axn,43.99
2023-11-27T08:50:00,axn,45.59
2023-11-27T08:51:00,axn,45.67
2023-11-27T08:52:00,axn,45.34
2023-11-27T08:53:00,axn,44.59
2023-11-27T08:54:00,axn,46.86
2023-11-27T08:55:00,axn,44.41
2023-11-27T08:56:00,axn,44.00
2023-11-27T08:57:00,axn,44.83
2023-11-27T08:58:00,axn,44.02
2023-11-27T08:59:00,axn,46.16
2023-11-27T09:00:00,axn,43.95
2023-11-27T09:01:00,axn,46.60
2023-11-27T09:02:00,axn,46.01
2023-11-27T09:03:00,axn,46.74
2023-11-27T09:04:00,axn,45.01
2023-11-27T09:05:00,axn,46.03
2023-11-27T09:06:00,axn,45.35
2023-11-27T09:07:00,axn,46.26
2023-11-27T09:08:00,axn,45.06
2023-11-27T09:09:00,axn,44.94
2023-11-27T09:10:00,axn,44.33
2023-11-27T09:11:00,axn,44.24
2023-11-27T09:12:00,axn,44.04
2023-11-27T09:13:00,axn,44.28
2023-11-27T09:14:00,axn,44.18
2023-11-27T09:15:00,axn,44.75
2023-11-27T09:16:00,axn,44.09
2023-11-27T09:17:00,axn,44.08
2023-11-27T09:18:00,axn,44.56
2023-11-27T09:19:00,axn,48.16
2023-11-27T09:20:00,axn,46.91
2023-11-27T09:21:00,axn,45.46
2023-11-27T09:22:00,axn,46.02
2023-11-27T09:23:00,axn,46.36
2023-11-27T09:24:00,axn,44.54
2023-11-27T09:25:00,axn,46.11
2023-11-27T09:26:00,axn,44.22
2023-11-27T09:27:00,axn,44.92
2023-11-27T09:28:00,axn,47.47
2023-11-27T09:29:00,axn,44.48
2023-11-27T09:30:00,axn,45.31
2023-11-27T09:31:00,axn,45.70
2023-11-27T09:32:00,axn,47.79
2023-11-27T09:33:00,axn,46.62
2023-11-27T09:34:00,axn,45.09
2023-11-27T09:35:00,axn,47.58
2023-11-27T09:36:00,axn,44.37
2023-11-27T09:37:00,axn,47.42
2023-11-27T09:38:00,axn,48.54
2023-11-27T09:39:00,axn,46.08
2023-11-27T09:40:00,axn,45.31
2023-11-27T09:41:00,axn,47.67
2023-11-27T09:42:00,axn,45.95
2023-11-27T09:43:00,axn,47.04
2023-11-27T09:44:00,axn,46.45
2023-11-27T09:45:00,axn,48.23
2023-11-27T09:46:00,axn,47.61
2023-11-27T09:47:00,axn,45.56
2023-11-27T09:48:00,axn,46.19
2023-11-27T09:49:00,axn,46.81
2023-11-27T09:50:00,axn,47.36
2023-11-27T09:51:00,axn,46.70
2023-11-27T09:52:00,axn,49.00
2023-11-27T09:53:00,axn,48.29
2023-11-27T09:54:00,axn,45.10
2023-11-27T09:55:00,axn,47.11
2023-11-27T09:56:00,axn,47.88
2023-11-27T09:57:00,axn,48.34
2023-11-27T09:58:00,axn,47.09
2023-11-27T09:59:00,axn,46.88
2023-11-27T10:00:00,axn,45.12
2023-11-27T10:01:00,axn,45.95
2023-11-27T10:02:00,axn,45.48
2023-11-27T10:03:00,axn,45.36
2023-11-27T10:04:00,axn,46.74
2023-11-27T10:05:00,axn,46.15
2023-11-27T10:06:00,axn,47.42
2023-11-27T10:07:00,axn,46.44
2023-11-27T10:08:00,axn,47.33
2023-11-27T10:09:00,axn,46.89
2023-11-27T10:10:00,axn,47.62
2023-11-27T10:11:00,axn,46.97
2023-11-27T10:12:00,axn,47.99
2023-11-27T10:13:00,axn,49.19
2023-11-27T10:14:00,axn,46.75
2023-11-27T10:15:00,axn,48.39
2023-11-27T10:16:00,axn,46.59
2023-11-27T10:17:00,axn,63.11
2023-11-27T10:18:00,axn,61.07
2023-11-27T10:19:00,axn,61.32
2023-11-27T10:20:00,axn,60.60
2023-11-27T10:21:00,axn,62.27
2023-11-27T10:22:00,axn,60.92
2023-11-27T10:23:00,axn,47.71
2023-11-27T10:24:00,axn,48.64
2023-11-27T10:25:00,axn,47.20
2023-11-27T10:26:00,axn,48.05
2023-11-27T10:27:00,axn,46.47
2023-11-27T10:28:00,axn,46.63
2023-11-27T10:29:00,axn,49.12
2023-11-27T10:30:00,axn,47.11
2023-11-27T10:31:00,axn,46.45
2023-11-27T10:32:00,axn,47.80
2023-11-27T10:33:00,axn,48.21
2023-11-27T10:34:00,axn,48.79
2023-11-27T10:35:00,axn,47.30
2023-11-27T10:36:00,axn,46.95
2023-11-27T10:37:00,axn,48.08
2023-11-27T10:38:00,axn,49.52
2023-11-27T10:39:00,axn,46.52
2023-11-27T10:40:00,axn,48.65
2023-11-27T10:41:00,axn,47.41
2023-11-27T10:42:00,axn,47.14
2023-11-27T10:43:00,axn,48.54
2023-11-27T10:44:00,axn,48.78
2023-11-27T10:45:00,axn,46.03
2023-11-27T10:46:00,axn,47.11
2023-11-27T10:47:00,axn,47.35
2023-11-27T10:48:00,axn,46.55
2023-11-27T10:49:00,axn,59.93
2023-11-27T10:50:00,axn,59.82
2023-11-27T10:51:00,axn,60.01
2023-11-27T10:52:00,axn,56.59
2023-11-27T10:53:00,axn,56.86
2023-11-27T10:54:00,axn,47.83
2023-11-27T10:55:00,axn,48.97
2023-11-27T10:56:00,axn,70.18
2023-11-27T10:57:00,axn,48.27
2023-11-27T10:58:00,axn,48.06
2023-11-27T10:59:00,axn,46.88
2023-11-27T11:00:00,axn,48.92
2023-11-27T11:01:00,axn,47.04
2023-11-27T11:02:00,axn,47.43
2023-11-27T11:03:00,axn,49.10
2023-11-27T11:04:00,axn,48.74
2023-11-27T11:05:00,axn,46.50
2023-11-27T11:06:00,axn,57.72
2023-11-27T11:07:00,axn,48.59
2023-11-27T11:08:00,axn,46.89
2023-11-27T11:09:00,axn,47.59
2023-11-27T11:10:00,axn,48.89
2023-11-27T11:11:00,axn,47.51
2023-11-27T11:12:00,axn,49.88
2023-11-27T11:13:00,axn,49.10
2023-11-27T11:14:00,axn,47.83
2023-11-27T11:15:00,axn,46.73
2023-11-27T11:16:00,axn,46.30
2023-11-27T11:17:00,axn,46.25
2023-11-27T11:18:00,axn,50.07
2023-11-27T11:19:00,axn,47.26
2023-11-27T11:20:00,axn,46.64
2023-11-27T11:21:00,axn,49.43
2023-11-27T11:22:00,axn,47.16
2023-11-27T11:23:00,axn,49.18
2023-11-27T11:24:00,axn,49.60
2023-11-27T11:25:00,axn,46.50
2023-11-27T11:26:00,axn,46.61
2023-11-27T11:27:00,axn,46.53
2023-11-27T11:28:00,axn,48.62
2023-11-27T11:29:00,axn,48.72
2023-11-27T11:30:00,axn,48.98
2023-11-27T11:31:00,axn,46.24
2023-11-27T11:32:00,axn,46.82
2023-11-27T11:33:00,axn,46.14
2023-11-27T11:34:00,axn,47.59
2023-11-27T11:35:00,axn,49.03
2023-11-27T11:36:00,axn,46.20
2023-11-27T11:37:00,axn,46.01
2023-11-27T11:38:00,axn,46.41
2023-11-27T11:39:00,axn,46.24
2023-11-27T11:40:00,axn,46.22
2023-11-27T11:41:00,axn,46.01
2023-11-27T11:42:00,axn,46.11
2023-11-27T11:43:00,axn,46.27
2023-11-27T11:44:00,axn,46.09
2023-11-27T11:45:00,axn,46.40
2023-11-27T11:46:00,axn,46.31
2023-11-27T11:47:00,axn,46.62
2023-11-27T11:48:00,axn,50.12
2023-11-27T11:49:00,axn,46.88
2023-11-27T11:50:00,axn,46.77
2023-11-27T11:51:00,axn,46.37
2023-11-27T11:52:00,axn,46.27
2023-11-27T11:53:00,axn,46.30
2023-11-27T11:54:00,axn,45.89
2023-11-27T11:55:00,axn,46.10
2023-11-27T11:56:00,axn,46.07
2023-11-27T11:57:00,axn,46.50
2023-11-27T11:58:00,axn,46.40
2023-11-27T11:59:00,axn,48.48
2023-11-27T12:00:00,axn,47.18
2023-11-27T12:01:00,axn,47.35
2023-11-27T12:02:00,axn,46.57
2023-11-27T12:03:00,axn,46.81
2023-11-27T12:04:00,axn,47.35
2023-11-27T12:05:00,axn,47.33
2023-11-27T12:06:00,axn,47.01
2023-11-27T12:07:00,axn,46.94
2023-11-27T12:08:00,axn,47.59
2023-11-27T12:09:00,axn,47.56
2023-11-27T12:10:00,axn,46.91
2023-11-27T12:11:00,axn,50.04
2023-11-27T12:12:00,axn,46.47
2023-11-27T12:13:00,axn,47.11
2023-11-27T12:14:00,axn,46.63
2023-11-27T12:15:00,axn,49.22
2023-11-27T12:16:00,axn,48.13
2023-11-27T12:17:00,axn,48.12
2023-11-27T12:18:00,axn,48.71
2023-11-27T12:19:00,axn,58.51
2023-11-27T12:20:00,axn,47.31
2023-11-27T12:21:00,axn,46.68
2023-11-27T12:22:00,axn,47.09
2023-11-27T12:23:00,axn,46.82
2023-11-27T12:24:00,axn,46.97
2023-11-27T12:25:00,axn,53.13
2023-11-27T12:26:00,axn,53.43
2023-11-27T12:27:00,axn,53.26
2023-11-27T12:28:00,axn,55.48
2023-11-27T12:29:00,axn,50.11
2023-11-27T12:30:00,axn,49.36
2023-11-27T12:31:00,axn,49.52
2023-11-27T12:32:00,axn,49.06
2023-11-27T12:33:00,axn,48.07
2023-11-27T12:34:00,axn,48.59
2023-11-27T12:35:00,axn,48.41
2023-11-27T12:36:00,axn,48.94
2023-11-27T12:37:00,axn,48.53
2023-11-27T12:38:00,axn,48.44
2023-11-27T12:39:00,axn,48.17
2023-11-27T12:40:00,axn,48.53
2023-11-27T12:41:00,axn,48.45
2023-11-27T12:42:00,axn,48.83
2023-11-27T12:43:00,axn,49.14
2023-11-27T12:44:00,axn,49.21
2023-11-27T12:45:00,axn,49.23
2023-11-27T12:46:00,axn,49.16
2023-11-27T12:47:00,axn,50.02
2023-11-27T12:48:00,axn,61.58
2023-11-27T12:49:00,axn,48.91
2023-11-27T12:50:00,axn,49.75
2023-11-27T12:51:00,axn,49.79
2023-11-27T12:52:00,axn,49.61
2023-11-27T12:53:00,axn,48.86
2023-11-27T12:54:00,axn,49.41
2023-11-27T12:55:00,axn,48.51
2023-11-27T12:56:00,axn,48.90
2023-11-27T12:57:00,axn,49.50
2023-11-27T12:58:00,axn,48.47
2023-11-27T12:59:00,axn,48.44
2023-11-27T13:00:00,axn,48.43
2023-11-27T13:01:00,axn,48.45
2023-11-27T13:02:00,axn,48.91
2023-11-27T13:03:00,axn,49.30
2023-11-27T13:04:00,axn,49.66
2023-11-27T13:05:00,axn,48.79
2023-11-27T13:06:00,axn,48.68
2023-11-27T13:07:00,axn,49.29
2023-11-27T13:08:00,axn,49.58
2023-11-27T13:09:00,axn,49.03
2023-11-27T13:10:00,axn,50.18
2023-11-27T13:11:00,axn,48.41
2023-11-27T13:12:00,axn,48.48
2023-11-27T13:13:00,axn,48.28
2023-11-27T13:14:00,axn,62.23
2023-11-27T13:15:00,axn,62.14
2023-11-27T13:16:00,axn,70.45
2023-11-27T13:17:00,axn,70.32
2023-11-27T13:18:00,axn,71.06